Hourly Data Report for October 19, 2013

All times are specified in Local Standard Time (LST). Add 1 hour to adjust for Daylight Saving Time where and when it is observed.

HALL BEACH A
NUNAVUT

68°46'33.000" N
81°14'33.000" W
9.10 m
2402354
71293
YUX

Download Data

Hourly Data (October 2013)
Hourly Data Report for October 19, 2013
Temp Definition
°C
Dew Point Temp Definition
°C
Rel Hum Definition
%
Wind Dir Definition
10's deg

Wind Spd Definition
km/h
Visibility Definition
km
Stn Press Definition
kPa
Hmdx Definition


Wind Chill Definition


Weather Definition


TIME
00:00 Legend Double Dagger -1.0 -1.3 98 21 17 3.6 100.30   -6 LegendNANA
01:00 Legend Double Dagger -1.4 -1.7 98 18 21 9.7 100.40   -7 LegendNANA
02:00 Legend Double Dagger -1.9 -2.4 97 21 17 16.1 100.48   -7 LegendNANA
03:00 Legend Double Dagger -1.7 -2.3 96 20 17 16.1 100.57   -7 LegendNANA
04:00 Legend Double Dagger -1.1 -1.8 95 19 21 16.1 100.63   -7 LegendNANA
05:00 Legend Double Dagger -1.1 -1.8 95 20 22 16.1 100.71   -7 LegendNANA
06:00 Legend Double Dagger -1.3 -2.1 94 19 18 16.1 100.79   -7 LegendNANA
07:00 Legend Double Dagger -1.5 -2.3 94 19 22 16.1 100.88   -7 LegendNANA
08:00 Legend Double Dagger -1.8 -2.8 93 19 22 16.1 100.96   -8 LegendNANA
09:00 Legend Double Dagger -1.7 -2.7 93 19 24 16.1 101.05   -8 LegendNANA
10:00 Legend Double Dagger -2.3 -3.7 90 20 32 16.1 101.09   -10 LegendNANA
11:00 Legend Double Dagger -2.9 -4.3 90 19 26 16.1 101.17   -10 LegendNANA
12:00 Legend Double Dagger -3.6 -4.9 91 20 24 16.1 101.24   -10 LegendNANA
13:00 Legend Double Dagger -4.0 -5.3 91 20 24 16.1 101.29   -11 LegendNANA
14:00 Legend Double Dagger -3.6 -4.7 92 20 24 16.1 101.35   -10 LegendNANA
15:00 Legend Double Dagger -3.9 -5.1 92 20 21 16.1 101.42   -10 LegendNANA
16:00 Legend Double Dagger -3.2 -4.4 92 19 18 16.1 101.49   -9 LegendNANA
17:00 Legend Double Dagger -3.7 -5.0 91 20 21 16.1 101.52   -10 LegendNANA
18:00 Legend Double Dagger -4.9 -6.3 90 20 18 16.1 101.59   -11 LegendNANA
19:00 Legend Double Dagger -6.6 -7.3 95 21 21 16.1 101.63   -14 LegendNANA
20:00 Legend Double Dagger -4.6 -5.7 92 21 17 16.1 101.67   -10 LegendNANA
21:00 Legend Double Dagger -4.4 -5.4 93 21 21 16.1 101.69   -11 LegendNANA
22:00 Legend Double Dagger -4.4 -5.7 91 21 17 16.1 101.70   -10 LegendNANA
23:00 Legend Double Dagger -5.0 -6.1 92 21 15 16.1 101.72   -11 LegendNANA

Notes on Data Quality.

Legend

  • E = Estimated
  • M = Missing
  • NA = Not Available
  • ‡ = Partner data that is not subject to review by the National Climate Archives
Date modified: